Farmington, NM

1:03 PM MST on February 14, 2016 (GMT -0700)
Four Corners Regional

Weather History for KFMN - April, 2013

Change the Weather History Date:

Wednesday, April 3, 2013

  Actual Average Record
Temperature  
Mean Temperature 47 °F -  
Max Temperature 68 °F 59 °F 73 °F (2002)
Min Temperature 26 °F 31 °F 20 °F (1980)
Degree Days  
Heating Degree Days 18    
Moisture  
Dew Point 23 °F    
Average Humidity 45    
Maximum Humidity 85    
Minimum Humidity 5    
Precipitation  
Precipitation 0.00 in - - ()
Sea Level Pressure  
Sea Level Pressure 30.05 in    
Wind  
Wind Speed 5 mph (NW)    
Max Wind Speed 21 mph    
Max Gust Speed 31 mph    
Visibility 10 miles    
Events      
Averages and records for this station are not official NWS values.
T = Trace of Precipitation, MM = Missing Value Source: NWS Daily Summary

Daily Weather History Graph

Daily Weather History Graph

Search for Another Location

Airport or City:

Trip Planner

Search our weather history database for the weather conditions in past years. The results will help you decide how hot, cold, wet, or windy it might be!

Date:

Astronomy

Apr. 03, 2013 Rise Set
Actual Time 6:55 AM MDT 7:37 PM MDT
Civil Twilight 6:29 AM MDT 8:03 PM MDT
Nautical Twilight 5:58 AM MDT 8:34 PM MDT
Astronomical Twilight 5:26 AM MDT 9:06 PM MDT
Moon 2:29 AM MDT (4/3) 1:02 PM MDT (4/3)
Length of Visible Light 13h 34m
Length of Day
12h 41m
Last Quarter, 44% of the Moon is Illuminated
Apr 3
Last Quarter
Apr 10
New
Apr 18
First Quarter
Apr 25
Full
May 2
Last Quarter

Hourly Weather History & Observations

Time (MDT) Temp. Windchill Dew Point Humidity Pressure Visibility Wind Dir Wind Speed Gust Speed Precip Events Conditions
12:53 AM 35.1 °F - 30.0 °F 82% 29.98 in 10.0 mi Calm Calm - N/A   Clear
1:53 AM 37.0 °F - 30.9 °F 79% 29.98 in 10.0 mi Calm Calm - N/A   Clear
2:53 AM 32.0 °F - 27.0 °F 82% 30.00 in 10.0 mi Calm Calm - N/A   Clear
3:53 AM 28.9 °F 22.8 °F 24.1 °F 82% 30.03 in 10.0 mi North 5.8 mph - N/A   Clear
4:53 AM 30.0 °F - 24.1 °F 79% 30.06 in 10.0 mi Calm Calm - N/A   Clear
5:53 AM 27.0 °F 21.6 °F 23.0 °F 85% 30.12 in 10.0 mi NNE 4.6 mph - N/A   Clear
6:53 AM 30.0 °F 25.2 °F 24.1 °F 79% 30.10 in 10.0 mi ESE 4.6 mph - N/A   Clear
7:53 AM 32.0 °F - 28.0 °F 85% 30.14 in 10.0 mi Calm Calm - N/A   Clear
8:53 AM 37.0 °F 34.5 °F 28.9 °F 73% 30.14 in 10.0 mi SE 3.5 mph - N/A   Clear
9:53 AM 42.1 °F - 30.9 °F 65% 30.13 in 10.0 mi Calm Calm - N/A   Clear
10:53 AM 48.0 °F - 30.0 °F 50% 30.10 in 10.0 mi West 5.8 mph - N/A   Clear
11:53 AM 52.0 °F - 32.0 °F 47% 30.11 in 10.0 mi Variable 4.6 mph - N/A   Clear
12:53 PM 57.9 °F - 27.0 °F 31% 30.06 in 10.0 mi WNW 11.5 mph 16.1 mph N/A   Clear
1:53 PM 63.0 °F - 28.9 °F 28% 30.02 in 10.0 mi West 12.7 mph 18.4 mph N/A   Clear
2:53 PM 64.9 °F - 25.0 °F 22% 30.00 in 10.0 mi West 19.6 mph 27.6 mph N/A   Clear
3:53 PM 64.9 °F - 21.9 °F 19% 30.00 in 10.0 mi WNW 15.0 mph 29.9 mph N/A   Clear
4:53 PM 66.9 °F - 19.0 °F 16% 29.97 in 10.0 mi West 19.6 mph 26.5 mph N/A   Clear
5:53 PM 66.0 °F - 12.0 °F 12% 29.98 in 10.0 mi West 18.4 mph 28.8 mph N/A   Clear
6:53 PM 64.0 °F - 12.9 °F 14% 29.99 in 10.0 mi WNW 20.7 mph 31.1 mph N/A   Clear
7:53 PM 60.1 °F - 12.9 °F 16% 30.02 in 10.0 mi WNW 13.8 mph - N/A   Clear
8:53 PM 54.0 °F - 14.0 °F 21% 30.06 in 10.0 mi West 4.6 mph - N/A   Clear
9:53 PM 53.1 °F - 15.1 °F 22% 30.07 in 10.0 mi WNW 9.2 mph - N/A   Clear
10:53 PM 48.9 °F - 14.0 °F 25% 30.09 in 10.0 mi North 6.9 mph - N/A   Clear
11:53 PM 48.9 °F - 14.0 °F 25% 30.08 in 10.0 mi North 6.9 mph - N/A   Clear